This is the latest recevied weather packets stored in our database for station/object KE2LU. If no packets are shown the sender has not sent any weather packets the latest 10 day(s).
| Time | Temp. | Humidity | Pressure | Rain* | Wind** | Luminosity | Snow |
|---|---|---|---|---|---|---|---|
| 1777544102 | 5.56° C | 97% | 1009.1 hPa | 0 mm | - | - | - |
| 1777542601 | 5.56° C | 97% | 1009 hPa | 0 mm | - | - | - |
| 1777541702 | 5.56° C | 97% | 1009.1 hPa | 0 mm | - | - | - |
| 1777536902 | 6.11° C | 99% | 1008.5 hPa | 0.25 mm | - | - | - |
| 1777534202 | 6.11° C | 98% | 1008.5 hPa | 0.51 mm | - | - | - |
| 1777531802 | 6.11° C | 98% | 1008.3 hPa | 0.76 mm | - | - | - |
| 1777530602 | 6.67° C | 98% | 1008.4 hPa | 1.02 mm | - | - | - |
| 1777530002 | 6.67° C | 98% | 1008.4 hPa | 1.02 mm | - | - | - |
| 1777526402 | 7.22° C | 99% | 1008.3 hPa | 1.78 mm | - | - | - |
| 1777524902 | 7.22° C | 99% | 1008.3 hPa | 1.52 mm | - | - | - |
| 1777523703 | 7.22° C | 99% | 1008.1 hPa | 1.02 mm | - | - | - |
| 1777523102 | 7.22° C | 99% | 1007.8 hPa | 0.76 mm | - | - | - |
| 1777522202 | 7.22° C | 99% | 1007.9 hPa | 1.02 mm | - | - | - |
| 1777520403 | 7.22° C | 99% | 1007.8 hPa | 2.29 mm | - | - | - |
| 1777518603 | 7.22° C | 99% | 1007.6 hPa | 2.03 mm | - | - | - |
| 1777517102 | 7.22° C | 99% | 1007.6 hPa | 2.03 mm | - | - | - |
| 1777516202 | 7.22° C | 99% | 1007.5 hPa | 1.52 mm | - | - | - |
| 1777514103 | 7.22° C | 99% | 1007.4 hPa | 0.25 mm | - | - | - |
| 1777513202 | 7.22° C | 99% | 1007.2 hPa | 0.51 mm | - | - | - |
| 1777512903 | 7.22° C | 99% | 1007.3 hPa | 0.51 mm | - | - | - |
| 1777509603 | 6.67° C | 98% | 1006.8 hPa | 0.76 mm | - | - | - |
| 1777507803 | 7.22° C | 99% | 1006.4 hPa | 2.54 mm | - | - | - |
| 1777507502 | 7.22° C | 98% | 1006.5 hPa | 3.56 mm | - | - | - |
| 1777506903 | 7.22° C | 98% | 1006.3 hPa | 5.33 mm | - | - | - |
| 1777505103 | 7.22° C | 98% | 1007 hPa | 9.4 mm | - | - | - |
* Rain latest hour (hover to see other rain measurements)
** Current wind speed in m/s (hover to see current wind gust speed)